Weather History for KCQM - September, 2012

Change the Weather History Date:

Sunday, September 9, 2012

  Actual Average Record
Temperature  
Mean Temperature 52 °F -  
Max Temperature 66 °F 67 °F 87 °F (2011)
Min Temperature 37 °F 47 °F 26 °F (2006)
Degree Days  
Heating Degree Days 14    
Growing Degree Days 2 (Base 50)    
Moisture  
Dew Point 44 °F    
Average Humidity 81    
Maximum Humidity 100    
Minimum Humidity 46    
Precipitation  
Precipitation 0.00 in - - ()
Sea Level Pressure  
Sea Level Pressure 30.12 in    
Wind  
Wind Speed 2 mph (WSW)    
Max Wind Speed 7 mph    
Max Gust Speed -    
Visibility 7 miles    
Events Fog    
Averages and records for this station are not official NWS values.
T = Trace of Precipitation, MM = Missing Value Source: NWS Daily Summary

Daily Weather History Graph

Daily Weather History Graph

Search for Another Location

Airport or City:

Trip Planner

Search our weather history database for the weather conditions in past years. The results will help you decide how hot, cold, wet, or windy it might be!

Date:

Astronomy

Sep. 09, 2012 Rise Set
Actual Time 6:40 AM CDT 7:34 PM CDT
Civil Twilight 6:09 AM CDT 8:05 PM CDT
Nautical Twilight 5:31 AM CDT 8:43 PM CDT
Astronomical Twilight 4:51 AM CDT 9:22 PM CDT
Moon No Moon Rise 3:39 PM CDT (9/9)
Length of Visible Light 13h 56m
Length of Day
12h 53m
Last Quarter, 39% of the Moon is Illuminated
Sep 9
Last Quarter
Sep 15
New
Sep 22
First Quarter
Sep 29
Full
Oct 8
Last Quarter

Hourly Weather History & Observations

Time (CDT) Temp. Windchill Dew Point Humidity Pressure Visibility Wind Dir Wind Speed Gust Speed Precip Events Conditions
12:16 AM 48.2 °F - 46.4 °F 93% 30.05 in 10.0 mi WNW 3.5 mph - N/A   Clear
12:37 AM 48.2 °F - 46.4 °F 93% 30.06 in 10.0 mi WNW 3.5 mph - N/A   Clear
12:56 AM 46.4 °F 45.2 °F 46.4 °F 100% 30.06 in 10.0 mi West 3.5 mph - N/A   Clear
1:16 AM 46.4 °F - 46.4 °F 100% 30.06 in 10.0 mi Calm Calm - N/A   Clear
1:37 AM 46.4 °F - 44.6 °F 93% 30.07 in 7.0 mi Calm Calm - N/A   Clear
1:56 AM 46.4 °F - 44.6 °F 93% 30.07 in 10.0 mi Calm Calm - N/A   Clear
2:17 AM 44.6 °F - 44.6 °F 100% 30.07 in 10.0 mi Calm Calm - N/A   Clear
2:37 AM 44.6 °F - 44.6 °F 100% 30.08 in 10.0 mi Calm Calm - N/A   Clear
2:56 AM 44.6 °F - 44.6 °F 100% 30.08 in 10.0 mi Calm Calm - N/A   Clear
3:17 AM 44.6 °F - 42.8 °F 93% 30.09 in 7.0 mi Calm Calm - N/A   Clear
3:37 AM 42.8 °F - 41.0 °F 93% 30.10 in 2.0 mi Calm Calm - N/A   Clear
3:56 AM 41.0 °F - 41.0 °F 100% 30.10 in 1.2 mi Calm Calm - N/A   Mostly Cloudy
4:17 AM 39.2 °F - 39.2 °F 100% 30.11 in 0.5 mi Calm Calm - N/A Fog Fog
4:37 AM 39.2 °F - 39.2 °F 100% 30.11 in 0.8 mi Calm Calm - N/A   Overcast
4:56 AM 39.2 °F - 37.4 °F 93% 30.12 in 0.5 mi Calm Calm - N/A Fog Fog
5:17 AM 37.4 °F - 37.4 °F 100% 30.13 in 0.5 mi Calm Calm - N/A Fog Fog
5:37 AM 37.4 °F - 37.4 °F 100% 30.14 in 0.5 mi Calm Calm - N/A Fog Fog
5:56 AM 39.2 °F - 37.4 °F 93% 30.14 in 0.2 mi Calm Calm - N/A Fog Fog
6:17 AM 39.2 °F - 37.4 °F 93% 30.15 in 0.2 mi Calm Calm - N/A Fog Fog
6:37 AM 37.4 °F - 37.4 °F 100% 30.15 in 0.2 mi Calm Calm - N/A Fog Fog
6:56 AM 39.2 °F - 37.4 °F 93% 30.16 in 0.5 mi Calm Calm - N/A Fog Fog
7:17 AM 39.2 °F - 39.2 °F 100% 30.17 in 0.2 mi Calm Calm - N/A Fog Fog
7:37 AM 39.2 °F - 39.2 °F 100% 30.17 in 0.2 mi Calm Calm - N/A Fog Fog
7:56 AM 39.2 °F - 39.2 °F 100% 30.18 in 0.2 mi Calm Calm - N/A Fog Fog
8:17 AM 41.0 °F - 41.0 °F 100% 30.18 in 0.2 mi Calm Calm - N/A Fog Fog
8:36 AM 42.8 °F - 42.8 °F 100% 30.18 in 0.2 mi Calm Calm - N/A Fog Fog
8:56 AM 44.6 °F - 44.6 °F 100% 30.18 in 0.2 mi Calm Calm - N/A Fog Fog
9:17 AM 46.4 °F - 46.4 °F 100% 30.18 in 0.2 mi Calm Calm - N/A Fog Fog
9:36 AM 46.4 °F - 46.4 °F 100% 30.18 in 0.2 mi Calm Calm - N/A Fog Fog
9:57 AM 48.2 °F - 48.2 °F 100% 30.18 in 0.8 mi Calm Calm - N/A   Overcast
10:36 AM 51.8 °F - 51.8 °F 100% 30.18 in 10.0 mi Calm Calm - N/A   Mostly Cloudy
11:16 AM 55.4 °F - 53.6 °F 94% 30.18 in 10.0 mi WSW 4.6 mph - N/A   Scattered Clouds
11:36 AM 57.2 °F - 51.8 °F 82% 30.18 in 10.0 mi Calm Calm - N/A   Mostly Cloudy
11:57 AM 57.2 °F - 48.2 °F 72% 30.18 in 10.0 mi Calm Calm - N/A   Mostly Cloudy
12:16 PM 60.8 °F - 48.2 °F 63% 30.18 in 10.0 mi West 6.9 mph - N/A   Overcast
12:36 PM 60.8 °F - 48.2 °F 63% 30.18 in 10.0 mi WSW 5.8 mph - N/A   Mostly Cloudy
12:57 PM 60.8 °F - 46.4 °F 59% 30.17 in 10.0 mi West 5.8 mph - N/A   Mostly Cloudy
1:16 PM 60.8 °F - 44.6 °F 55% 30.17 in 10.0 mi WSW 5.8 mph - N/A   Scattered Clouds
1:37 PM 62.6 °F - 44.6 °F 52% 30.16 in 10.0 mi Calm Calm - N/A   Scattered Clouds
1:56 PM 62.6 °F - 44.6 °F 52% 30.16 in 10.0 mi West 4.6 mph - N/A   Scattered Clouds
2:16 PM 64.4 °F - 46.4 °F 52% 30.15 in 10.0 mi NW 4.6 mph - N/A   Scattered Clouds
2:37 PM 64.4 °F - 46.4 °F 52% 30.15 in 10.0 mi SW 4.6 mph - N/A   Scattered Clouds
2:56 PM 64.4 °F - 46.4 °F 52% 30.14 in 10.0 mi WSW 6.9 mph - N/A   Scattered Clouds
3:16 PM 64.4 °F - 46.4 °F 52% 30.13 in 10.0 mi SW 4.6 mph - N/A   Scattered Clouds
3:37 PM 64.4 °F - 44.6 °F 49% 30.13 in 10.0 mi West 3.5 mph - N/A   Clear
3:56 PM 64.4 °F - 44.6 °F 49% 30.13 in 10.0 mi West 4.6 mph - N/A   Clear
4:16 PM 64.4 °F - 44.6 °F 49% 30.12 in 10.0 mi SW 4.6 mph - N/A   Clear
4:37 PM 66.2 °F - 44.6 °F 46% 30.12 in 10.0 mi WSW 3.5 mph - N/A   Clear
4:56 PM 66.2 °F - 44.6 °F 46% 30.11 in 10.0 mi SSW 3.5 mph - N/A   Clear
5:16 PM 66.2 °F - 44.6 °F 46% 30.10 in 10.0 mi Calm Calm - N/A   Clear
5:37 PM 66.2 °F - 46.4 °F 49% 30.10 in 10.0 mi WSW 6.9 mph - N/A   Clear
5:56 PM 66.2 °F - 44.6 °F 46% 30.09 in 10.0 mi WSW 3.5 mph - N/A   Clear
6:16 PM 64.4 °F - 46.4 °F 52% 30.09 in 10.0 mi Calm Calm - N/A   Clear
6:37 PM 64.4 °F - 46.4 °F 52% 30.08 in 10.0 mi South 3.5 mph - N/A   Clear
6:56 PM 64.4 °F - 46.4 °F 52% 30.08 in 10.0 mi Calm Calm - N/A   Clear
7:17 PM 60.8 °F - 48.2 °F 63% 30.08 in 10.0 mi Calm Calm - N/A   Clear
7:36 PM 57.2 °F - 48.2 °F 72% 30.07 in 10.0 mi Calm Calm - N/A   Clear
7:56 PM 55.4 °F - 48.2 °F 77% 30.07 in 10.0 mi Calm Calm - N/A   Clear
8:17 PM 53.6 °F - 48.2 °F 82% 30.07 in 10.0 mi Calm Calm - N/A   Clear
8:36 PM 51.8 °F - 46.4 °F 82% 30.08 in 10.0 mi Calm Calm - N/A   Clear
8:56 PM 50.0 °F - 46.4 °F 87% 30.08 in 10.0 mi Calm Calm - N/A   Clear
9:17 PM 48.2 °F - 46.4 °F 93% 30.08 in 10.0 mi Calm Calm - N/A   Clear
9:36 PM 48.2 °F - 46.4 °F 93% 30.08 in 10.0 mi Calm Calm - N/A   Clear
9:56 PM 46.4 °F - 46.4 °F 100% 30.07 in 10.0 mi Calm Calm - N/A   Clear
10:17 PM 46.4 °F - 44.6 °F 93% 30.07 in 10.0 mi Calm Calm - N/A   Clear
10:36 PM 46.4 °F - 44.6 °F 93% 30.07 in 10.0 mi Calm Calm - N/A   Clear
10:56 PM 44.6 °F - 44.6 °F 100% 30.07 in 10.0 mi Calm Calm - N/A   Clear
11:17 PM 44.6 °F - 42.8 °F 93% 30.06 in 10.0 mi Calm Calm - N/A   Clear
11:36 PM 44.6 °F - 42.8 °F 93% 30.06 in 10.0 mi Calm Calm - N/A   Clear
11:56 PM 44.6 °F - 42.8 °F 93% 30.05 in 10.0 mi Calm Calm - N/A   Clear